Time,TemperatureF,DewpointF,PressureIn,WindDirection,WindDirectionDegrees,WindSpeedMPH,WindSpeedGustMPH,Humidity,HourlyPrecipIn,Conditions,Clouds,dailyrainin,SolarRadiationWatts/m^2,SoftwareType,DateUTC
2013-12-13 00:09:00,16.2,9.0,30.15,West,268,0.0,5.0,73,0.00,,,0.00,0,weatherlink.com 1.10,2013-12-13 05:09:00,
2013-12-13 00:24:00,16.7,9.0,30.14,SSW,209,0.0,6.0,72,0.00,,,0.00,0,weatherlink.com 1.10,2013-12-13 05:24:00,
2013-12-13 00:39:00,16.7,9.0,30.13,WSW,240,2.0,6.0,71,0.00,,,0.00,0,weatherlink.com 1.10,2013-12-13 05:39:00,
2013-12-13 00:54:00,16.8,9.0,30.13,SW,216,0.0,4.0,71,0.00,,,0.00,0,weatherlink.com 1.10,2013-12-13 05:54:00,
2013-12-13 01:09:00,16.5,8.0,30.13,WSW,244,1.0,2.0,70,0.00,,,0.00,0,weatherlink.com 1.10,2013-12-13 06:09:00,
2013-12-13 01:24:00,16.2,9.0,30.13,SW,229,1.0,3.0,72,0.00,,,0.00,0,weatherlink.com 1.10,2013-12-13 06:24:00,
2013-12-13 01:39:00,16.2,8.0,30.13,West,262,2.0,3.0,71,0.00,,,0.00,0,weatherlink.com 1.10,2013-12-13 06:39:00,
2013-12-13 01:54:00,17.0,9.0,30.13,WSW,254,0.0,5.0,70,0.00,,,0.00,0,weatherlink.com 1.10,2013-12-13 06:54:00,
2013-12-13 02:09:00,17.0,8.0,30.13,SW,236,0.0,5.0,69,0.00,,,0.00,0,weatherlink.com 1.10,2013-12-13 07:09:00,
2013-12-13 02:24:00,16.9,8.0,30.13,WSW,250,0.0,4.0,69,0.00,,,0.00,0,weatherlink.com 1.10,2013-12-13 07:24:00,
2013-12-13 02:39:00,17.1,9.0,30.12,WNW,288,4.0,10.0,69,0.00,,,0.00,0,weatherlink.com 1.10,2013-12-13 07:39:00,
2013-12-13 02:54:00,17.6,9.0,30.12,West,276,7.0,9.0,69,0.00,,,0.00,0,weatherlink.com 1.10,2013-12-13 07:54:00,
2013-12-13 03:09:00,18.3,9.0,30.12,SW,234,6.0,13.0,68,0.00,,,0.00,0,weatherlink.com 1.10,2013-12-13 08:09:00,
2013-12-13 03:25:00,18.4,9.0,30.12,WSW,257,8.0,8.0,68,0.00,,,0.00,0,weatherlink.com 1.10,2013-12-13 08:25:00,
2013-12-13 03:40:00,18.4,9.0,30.12,WSW,238,3.0,7.0,68,0.00,,,0.00,0,weatherlink.com 1.10,2013-12-13 08:40:00,
2013-12-13 03:55:00,18.5,10.0,30.11,WSW,246,4.0,8.0,68,0.00,,,0.00,0,weatherlink.com 1.10,2013-12-13 08:55:00,
2013-12-13 04:10:00,18.3,9.0,30.11,West,273,0.0,6.0,68,0.00,,,0.00,0,weatherlink.com 1.10,2013-12-13 09:10:00,
2013-12-13 04:25:00,18.2,10.0,30.11,SW,234,0.0,7.0,69,0.00,,,0.00,0,weatherlink.com 1.10,2013-12-13 09:25:00,
2013-12-13 04:40:00,18.1,10.0,30.11,WSW,252,0.0,6.0,69,0.00,,,0.00,0,weatherlink.com 1.10,2013-12-13 09:40:00,
2013-12-13 04:55:00,18.1,10.0,30.12,West,267,2.0,7.0,69,0.00,,,0.00,0,weatherlink.com 1.10,2013-12-13 09:55:00,
2013-12-13 05:10:00,18.2,10.0,30.12,SSW,198,4.0,5.0,70,0.00,,,0.00,0,weatherlink.com 1.10,2013-12-13 10:10:00,
2013-12-13 05:25:00,19.0,11.0,30.13,WSW,250,0.0,9.0,70,0.00,,,0.00,0,weatherlink.com 1.10,2013-12-13 10:25:00,
2013-12-13 05:40:00,19.7,11.0,30.13,WSW,250,11.0,11.0,69,0.00,,,0.00,0,weatherlink.com 1.10,2013-12-13 10:40:00,
2013-12-13 05:55:00,20.4,11.0,30.13,SW,215,2.0,12.0,67,0.00,,,0.00,0,weatherlink.com 1.10,2013-12-13 10:55:00,
2013-12-13 06:10:00,20.9,11.0,30.13,West,280,2.0,9.0,67,0.00,,,0.00,0,weatherlink.com 1.10,2013-12-13 11:10:00,
2013-12-13 06:25:00,21.2,11.0,30.13,West,267,6.0,10.0,66,0.00,,,0.00,0,weatherlink.com 1.10,2013-12-13 11:25:00,
2013-12-13 06:40:00,21.5,11.0,30.14,SSE,165,3.0,15.0,65,0.00,,,0.00,0,weatherlink.com 1.10,2013-12-13 11:40:00,
2013-12-13 06:55:00,21.6,12.0,30.14,WSW,239,5.0,9.0,66,0.00,,,0.00,0,weatherlink.com 1.10,2013-12-13 11:55:00,
2013-12-13 07:10:00,21.7,12.0,30.14,SSW,206,3.0,11.0,65,0.00,,,0.00,0,weatherlink.com 1.10,2013-12-13 12:10:00,
2013-12-13 07:25:00,21.9,11.0,30.14,WNW,284,5.0,13.0,64,0.00,,,0.00,0,weatherlink.com 1.10,2013-12-13 12:25:00,
2013-12-13 07:40:00,22.2,12.0,30.14,SSW,209,8.0,12.0,64,0.00,,,0.00,11,weatherlink.com 1.10,2013-12-13 12:40:00,
2013-12-13 07:55:00,22.5,12.0,30.15,SSW,208,5.0,12.0,64,0.00,,,0.00,18,weatherlink.com 1.10,2013-12-13 12:55:00,
2013-12-13 08:10:00,22.8,11.0,30.15,WSW,254,5.0,12.0,62,0.00,,,0.00,26,weatherlink.com 1.10,2013-12-13 13:10:00,
2013-12-13 08:25:00,23.3,12.0,30.16,SW,233,3.0,12.0,62,0.00,,,0.00,35,weatherlink.com 1.10,2013-12-13 13:25:00,
2013-12-13 08:40:00,23.6,12.0,30.16,South,191,1.0,11.0,61,0.00,,,0.00,44,weatherlink.com 1.10,2013-12-13 13:40:00,
2013-12-13 08:55:00,24.1,13.0,30.16,SW,217,9.0,15.0,62,0.00,,,0.00,62,weatherlink.com 1.10,2013-12-13 13:55:00,
2013-12-13 09:10:00,24.6,13.0,30.17,West,260,4.0,13.0,62,0.00,,,0.00,98,weatherlink.com 1.10,2013-12-13 14:10:00,
2013-12-13 09:25:00,25.0,13.0,30.17,WSW,256,8.0,15.0,60,0.00,,,0.00,123,weatherlink.com 1.10,2013-12-13 14:25:00,
2013-12-13 09:40:00,26.8,14.0,30.18,West,276,2.0,12.0,59,0.00,,,0.00,341,weatherlink.com 1.10,2013-12-13 14:40:00,
2013-12-13 09:55:00,29.3,14.0,30.17,SW,232,7.0,15.0,54,0.00,,,0.00,529,weatherlink.com 1.10,2013-12-13 14:55:00,
2013-12-13 10:10:00,29.2,14.0,30.17,West,277,6.0,15.0,53,0.00,,,0.00,448,weatherlink.com 1.10,2013-12-13 15:10:00,
2013-12-13 10:25:00,30.1,15.0,30.17,WSW,250,7.0,10.0,53,0.00,,,0.00,190,weatherlink.com 1.10,2013-12-13 15:25:00,
2013-12-13 10:40:00,28.7,15.0,30.16,West,274,2.0,13.0,56,0.00,,,0.00,186,weatherlink.com 1.10,2013-12-13 15:40:00,
2013-12-13 10:55:00,28.7,14.0,30.16,SSE,165,5.0,11.0,55,0.00,,,0.00,192,weatherlink.com 1.10,2013-12-13 15:55:00,
2013-12-13 11:10:00,28.5,14.0,30.15,SSW,205,2.0,11.0,56,0.00,,,0.00,165,weatherlink.com 1.10,2013-12-13 16:10:00,
2013-12-13 11:25:00,28.8,15.0,30.14,West,275,5.0,12.0,57,0.00,,,0.00,227,weatherlink.com 1.10,2013-12-13 16:25:00,
2013-12-13 11:40:00,28.5,14.0,30.13,West,274,5.0,13.0,56,0.00,,,0.00,86,weatherlink.com 1.10,2013-12-13 16:40:00,
2013-12-13 11:56:00,28.3,14.0,30.13,West,263,0.0,10.0,56,0.00,,,0.00,144,weatherlink.com 1.10,2013-12-13 16:56:00,
2013-12-13 12:11:00,29.3,15.0,30.12,WSW,250,8.0,13.0,56,0.00,,,0.00,207,weatherlink.com 1.10,2013-12-13 17:11:00,
2013-12-13 12:26:00,30.6,17.0,30.12,SW,223,3.0,14.0,57,0.00,,,0.00,396,weatherlink.com 1.10,2013-12-13 17:26:00,
2013-12-13 12:41:00,31.9,16.0,30.12,SW,225,5.0,12.0,53,0.00,,,0.00,181,weatherlink.com 1.10,2013-12-13 17:41:00,
2013-12-13 12:56:00,32.5,18.0,30.13,WSW,237,4.0,9.0,55,0.00,,,0.00,258,weatherlink.com 1.10,2013-12-13 17:56:00,
2013-12-13 13:11:00,33.0,17.0,30.12,West,268,1.0,10.0,52,0.00,,,0.00,169,weatherlink.com 1.10,2013-12-13 18:11:00,
2013-12-13 13:26:00,32.8,16.0,30.12,WNW,290,5.0,10.0,51,0.00,,,0.00,195,weatherlink.com 1.10,2013-12-13 18:26:00,
2013-12-13 13:41:00,32.7,18.0,30.12,West,277,3.0,10.0,55,0.00,,,0.00,160,weatherlink.com 1.10,2013-12-13 18:41:00,
2013-12-13 13:56:00,32.3,17.0,30.13,West,272,2.0,9.0,54,0.00,,,0.00,260,weatherlink.com 1.10,2013-12-13 18:56:00,
2013-12-13 14:11:00,33.0,17.0,30.13,WNW,284,8.0,13.0,53,0.00,,,0.00,158,weatherlink.com 1.10,2013-12-13 19:11:00,
2013-12-13 14:26:00,33.8,19.0,30.14,SSW,211,4.0,8.0,54,0.00,,,0.00,158,weatherlink.com 1.10,2013-12-13 19:26:00,
2013-12-13 14:41:00,33.8,17.0,30.14,West,275,1.0,9.0,51,0.00,,,0.00,125,weatherlink.com 1.10,2013-12-13 19:41:00,
2013-12-13 14:56:00,32.7,17.0,30.15,WNW,294,3.0,9.0,52,0.00,,,0.00,95,weatherlink.com 1.10,2013-12-13 19:56:00,
2013-12-13 15:11:00,32.1,17.0,30.15,West,273,3.0,8.0,53,0.00,,,0.00,35,weatherlink.com 1.10,2013-12-13 20:11:00,
2013-12-13 15:26:00,31.6,17.0,30.16,West,274,0.0,7.0,56,0.00,,,0.00,37,weatherlink.com 1.10,2013-12-13 20:26:00,
2013-12-13 15:41:00,31.2,17.0,30.17,West,262,0.0,6.0,56,0.00,,,0.00,19,weatherlink.com 1.10,2013-12-13 20:41:00,
2013-12-13 15:56:00,30.6,17.0,30.17,SW,226,0.0,4.0,57,0.00,,,0.00,11,weatherlink.com 1.10,2013-12-13 20:56:00,
2013-12-13 16:11:00,30.2,17.0,30.18,WNW,285,3.0,5.0,58,0.00,,,0.00,5,weatherlink.com 1.10,2013-12-13 21:11:00,
2013-12-13 16:26:00,30.1,17.0,30.19,WSW,251,2.0,7.0,58,0.00,,,0.00,0,weatherlink.com 1.10,2013-12-13 21:26:00,
2013-12-13 16:41:00,29.7,17.0,30.20,West,273,0.0,5.0,59,0.00,,,0.00,0,weatherlink.com 1.10,2013-12-13 21:41:00,
2013-12-13 16:56:00,29.3,17.0,30.20,West,273,0.0,7.0,60,0.00,,,0.00,0,weatherlink.com 1.10,2013-12-13 21:56:00,
2013-12-13 17:11:00,29.2,17.0,30.21,West,272,0.0,6.0,60,0.00,,,0.00,0,weatherlink.com 1.10,2013-12-13 22:11:00,
2013-12-13 17:26:00,28.7,17.0,30.22,SW,229,0.0,4.0,62,0.00,,,0.00,0,weatherlink.com 1.10,2013-12-13 22:26:00,
2013-12-13 17:41:00,28.3,17.0,30.23,WSW,251,0.0,3.0,63,0.00,,,0.00,0,weatherlink.com 1.10,2013-12-13 22:41:00,
2013-12-13 17:56:00,27.8,17.0,30.24,WSW,244,0.0,5.0,64,0.00,,,0.00,0,weatherlink.com 1.10,2013-12-13 22:56:00,
2013-12-13 18:11:00,27.6,17.0,30.24,SSW,197,3.0,4.0,64,0.00,,,0.00,0,weatherlink.com 1.10,2013-12-13 23:11:00,
2013-12-13 18:26:00,27.8,17.0,30.25,West,267,0.0,4.0,64,0.00,,,0.00,0,weatherlink.com 1.10,2013-12-13 23:26:00,
2013-12-13 18:41:00,27.5,17.0,30.26,WSW,254,0.0,0.0,64,0.00,,,0.00,0,weatherlink.com 1.10,2013-12-13 23:41:00,
2013-12-13 18:56:00,26.8,17.0,30.27,WSW,248,0.0,0.0,66,0.00,,,0.00,0,weatherlink.com 1.10,2013-12-13 23:56:00,
2013-12-13 19:11:00,26.1,17.0,30.28,WSW,248,0.0,0.0,68,0.00,,,0.00,0,weatherlink.com 1.10,2013-12-14 00:11:00,
2013-12-13 19:26:00,25.2,17.0,30.29,WSW,246,0.0,0.0,71,0.00,,,0.00,0,weatherlink.com 1.10,2013-12-14 00:26:00,
2013-12-13 19:41:00,24.2,17.0,30.30,WSW,246,0.0,0.0,75,0.00,,,0.00,0,weatherlink.com 1.10,2013-12-14 00:41:00,
2013-12-13 19:56:00,23.2,16.0,30.31,West,275,0.0,0.0,75,0.00,,,0.00,0,weatherlink.com 1.10,2013-12-14 00:56:00,
2013-12-13 20:11:00,23.3,17.0,30.32,WNW,283,0.0,0.0,78,0.00,,,0.00,0,weatherlink.com 1.10,2013-12-14 01:11:00,
2013-12-13 20:26:00,23.3,17.0,30.33,WNW,283,0.0,0.0,78,0.00,,,0.00,0,weatherlink.com 1.10,2013-12-14 01:26:00,
2013-12-13 20:41:00,23.0,17.0,30.33,WNW,283,0.0,0.0,79,0.00,,,0.00,0,weatherlink.com 1.10,2013-12-14 01:41:00,
2013-12-13 20:56:00,22.9,18.0,30.34,WSW,242,0.0,0.0,80,0.00,,,0.00,0,weatherlink.com 1.10,2013-12-14 01:56:00,
2013-12-13 21:11:00,23.1,18.0,30.35,WSW,242,0.0,0.0,80,0.00,,,0.00,0,weatherlink.com 1.10,2013-12-14 02:11:00,
2013-12-13 21:26:00,23.2,18.0,30.35,WSW,241,0.0,0.0,81,0.00,,,0.00,0,weatherlink.com 1.10,2013-12-14 02:26:00,
2013-12-13 21:41:00,23.5,19.0,30.36,WSW,241,0.0,0.0,82,0.00,,,0.00,0,weatherlink.com 1.10,2013-12-14 02:41:00,
2013-12-13 21:56:00,23.8,19.0,30.35,West,276,0.0,0.0,81,0.00,,,0.00,0,weatherlink.com 1.10,2013-12-14 02:56:00,
2013-12-13 22:11:00,23.9,19.0,30.36,West,263,0.0,0.0,81,0.00,,,0.00,0,weatherlink.com 1.10,2013-12-14 03:11:00,
2013-12-13 22:27:00,24.1,19.0,30.37,West,275,0.0,0.0,80,0.00,,,0.00,0,weatherlink.com 1.10,2013-12-14 03:27:00,
2013-12-13 22:42:00,24.2,18.0,30.38,NW,306,0.0,1.0,77,0.00,,,0.00,0,weatherlink.com 1.10,2013-12-14 03:42:00,
2013-12-13 22:57:00,24.2,17.0,30.38,SSE,167,0.0,4.0,75,0.00,,,0.00,0,weatherlink.com 1.10,2013-12-14 03:57:00,
2013-12-13 23:12:00,24.2,17.0,30.39,NW,317,0.0,3.0,74,0.00,,,0.00,0,weatherlink.com 1.10,2013-12-14 04:12:00,
2013-12-13 23:27:00,24.0,16.0,30.39,NW,316,0.0,3.0,72,0.00,,,0.00,0,weatherlink.com 1.10,2013-12-14 04:27:00,
2013-12-13 23:42:00,23.5,16.0,30.40,NW,309,0.0,2.0,72,0.00,,,0.00,0,weatherlink.com 1.10,2013-12-14 04:42:00,
2013-12-13 23:57:00,23.1,16.0,30.40,NW,317,0.0,3.0,74,0.00,,,0.00,0,weatherlink.com 1.10,2013-12-14 04:57:00,